GFSSE_925_spd_000.txt.gz
Wind_Speed
12 17 21 23 24 25 24 22 24 24 24 24 25 29 28 25 23 20 17 17 13 14 14 14 12 13 13 13 12 11 10 8 6 8 10 11 11 11 10 9 8 7 9
19 18 20 24 25 25 25 26 25 24 24 25 27 27 21 21 22 19 18 16 13 12 12 13 12 12 11 11 10 8 8 7 6 6 8 8 7 7 5 9 8 8 11
23 21 22 23 24 24 25 26 25 25 26 25 27 23 21 20 21 19 16 14 12 10 11 11 10 10 10 8 7 7 6 5 5 4 6 6 6 7 9 9 10 11 12
24 24 23 24 25 24 24 25 26 25 26 27 26 23 20 19 18 16 14 12 11 10 11 9 8 8 6 6 5 5 4 4 2 2 3 6 6 6 8 8 10 11 11
25 24 24 24 24 24 26 26 27 26 24 22 20 19 18 17 16 15 12 11 11 10 9 7 6 6 4 3 3 4 4 4 4 3 7 8 5 7 7 9 10 11 12
25 23 23 23 23 25 26 27 26 24 23 21 20 19 17 16 15 13 12 11 10 8 6 5 4 3 2 2 2 2 4 4 8 6 8 11 6 8 8 9 10 12 11
26 24 23 22 24 25 26 25 23 22 21 20 20 18 16 14 13 12 10 8 7 5 4 2 0 2 1 2 2 1 3 3 2 4 8 9 9 8 7 9 11 12 12
27 25 23 21 24 24 23 22 21 20 19 19 18 16 14 12 10 8 7 5 5 4 2 1 4 5 3 2 1 0 2 3 1 2 5 10 10 10 9 10 10 11 12
23 22 21 21 22 22 21 20 19 19 18 17 15 13 10 8 7 6 4 3 3 3 1 3 5 6 5 3 1 1 0 2 4 4 8 7 10 12 11 12 12 11 14
23 22 22 22 22 22 22 20 19 17 16 14 13 12 9 7 5 4 3 3 3 5 4 4 5 4 4 3 2 2 2 3 4 6 6 10 11 13 13 13 13 13 14
21 20 22 23 21 21 20 20 19 17 15 13 12 11 10 8 6 3 6 6 5 5 5 3 2 3 2 1 2 3 2 2 5 5 6 13 13 15 14 14 14 15 16
25 23 21 20 21 21 19 16 15 16 15 13 12 11 8 6 4 5 4 6 5 3 2 2 1 3 4 2 1 4 6 6 7 8 8 9 15 16 15 16 16 15 16
27 25 23 20 19 20 19 17 15 13 12 13 12 10 7 5 7 7 2 6 3 4 3 3 4 5 4 7 8 9 8 8 7 9 13 9 12 15 17 17 17 17 17
28 25 22 19 19 17 14 16 16 16 16 13 13 11 10 9 8 8 6 5 4 2 4 5 6 6 8 9 11 13 12 13 13 10 12 12 11 15 19 19 19 19 18
28 26 24 22 19 17 16 14 14 15 18 12 12 12 11 13 10 9 5 6 7 6 7 7 7 8 11 12 13 13 13 15 11 11 12 13 13 15 18 19 21 22 20
28 29 28 23 20 19 18 14 15 16 16 15 15 13 13 14 14 12 9 9 8 9 9 10 12 14 14 13 13 11 13 13 13 13 12 14 16 17 18 19 20 24 23
30 27 26 25 21 20 19 16 13 11 12 9 12 13 11 10 11 13 11 11 9 10 11 14 14 15 15 14 14 13 13 13 12 11 12 16 15 18 20 21 21 23 25
26 28 24 23 22 21 17 15 13 13 12 11 11 14 12 11 11 12 14 11 11 12 10 11 13 13 13 13 15 14 15 12 12 12 15 16 16 19 21 22 22 24 25
28 30 28 23 20 18 14 11 11 12 14 16 13 12 13 13 13 15 12 10 11 10 9 10 11 11 13 14 17 17 15 15 15 16 16 17 19 21 24 24 25 25 25
29 29 26 23 19 17 13 11 10 10 13 13 13 13 12 7 6 6 8 8 8 6 7 8 11 10 12 13 16 18 18 18 17 15 16 19 21 20 24 27 26 26 28
29 28 27 22 20 22 19 15 14 14 14 14 13 12 10 7 4 5 2 2 2 5 7 8 11 12 12 11 10 11 16 8 11 13 12 13 15 21 22 24 28 27 29
31 28 25 24 22 24 20 17 14 12 11 9 6 5 7 7 4 3 3 4 4 4 6 4 5 6 8 6 4 5 3 6 8 22 10 16 16 14 19 23 24 26 25
30 28 27 26 23 23 18 15 14 10 10 9 11 12 12 6 5 4 4 4 4 3 4 5 5 5 6 9 8 2 2 2 8 4 11 12 15 16 13 14 15 20 25
32 31 30 27 26 21 20 19 16 13 11 7 13 16 10 5 4 3 3 3 3 3 5 3 4 4 6 7 6 4 4 3 2 4 6 13 20 19 17 17 17 18 20
33 35 33 30 26 24 22 19 18 12 10 13 16 14 8 6 5 8 7 7 4 2 2 4 4 4 4 4 5 5 4 4 1 2 3 10 23 23 16 22 22 20 21
33 34 33 32 29 25 23 20 21 17 15 17 17 14 11 5 3 5 7 3 1 1 2 3 4 5 3 3 3 2 2 1 4 2 3 6 12 16 25 16 21 21 23

GFSSE_925_spd_003.txt.gz
Wind_Speed
9 13 17 22 24 25 25 21 23 24 22 20 23 25 25 26 21 19 17 14 14 13 11 11 10 10 10 9 8 8 8 6 8 10 7 9 10 9 9 6 6 7 9
13 13 21 22 22 22 23 22 23 23 24 23 24 24 25 22 18 16 14 12 13 11 10 10 8 8 8 9 8 7 6 6 7 7 7 7 5 4 4 6 5 8 9
16 17 21 24 22 21 23 23 24 22 24 25 22 22 21 20 19 17 15 12 11 10 10 9 7 6 7 6 6 6 5 5 6 6 5 4 4 6 7 8 7 10 9
19 20 22 22 23 24 24 23 23 22 24 25 19 20 22 22 20 17 14 11 9 9 9 7 5 4 4 4 4 5 4 3 4 6 5 4 2 4 5 5 6 8 10
20 20 21 22 23 25 24 24 24 24 26 25 22 21 20 19 17 14 12 10 8 7 7 6 3 2 2 2 3 3 4 3 5 5 6 6 3 4 5 5 5 8 9
22 20 20 22 21 24 24 25 26 26 25 23 20 18 17 16 14 11 10 9 7 6 4 3 1 0 2 2 1 1 2 4 4 4 9 8 5 5 7 7 7 10 10
22 20 20 21 23 23 24 25 24 21 20 19 18 16 15 14 12 10 9 7 5 3 2 2 3 3 4 4 2 2 2 3 2 4 9 10 7 6 7 9 9 9 11
23 21 20 21 23 23 23 23 22 20 19 18 17 15 13 12 10 8 6 4 3 2 2 4 6 5 5 4 3 3 3 3 4 4 9 10 10 8 8 10 10 10 10
22 22 21 21 21 22 22 21 20 19 18 18 16 13 11 10 8 6 5 3 3 3 4 6 8 6 5 4 3 2 3 5 5 5 7 10 11 10 9 11 11 12 13
22 20 21 21 21 21 21 21 20 19 17 16 13 11 9 7 6 5 4 4 5 6 7 7 7 6 4 4 4 3 3 5 6 4 7 9 10 12 11 11 12 13 14
20 20 20 22 21 22 20 17 16 16 15 14 13 10 8 7 7 6 6 8 6 6 6 6 4 4 5 4 3 5 5 5 7 7 9 11 11 12 12 13 13 14 15
22 22 22 22 22 21 20 18 15 14 14 13 12 12 10 7 6 8 6 7 7 5 3 4 2 5 5 5 4 5 7 8 9 9 9 9 11 13 13 14 15 16 16
28 24 25 25 23 22 20 18 15 16 14 14 13 13 9 7 6 4 2 2 4 4 3 4 5 5 5 7 9 12 9 8 8 10 12 12 12 14 16 16 16 16 17
24 27 25 24 24 22 18 19 17 17 15 15 15 13 11 8 6 4 4 4 6 5 4 5 6 6 6 10 13 15 11 11 12 14 10 10 12 13 14 17 18 18 17
27 27 26 24 23 22 21 19 17 17 16 15 13 13 13 10 8 5 4 5 8 7 7 7 7 8 11 11 10 11 11 12 12 9 11 9 13 14 15 18 19 19 19
29 29 26 25 22 22 21 18 17 16 13 15 14 12 14 12 11 9 9 9 8 9 9 9 9 11 13 13 11 11 12 11 9 11 11 10 13 15 17 16 19 19 20
29 30 28 26 22 22 22 19 15 16 17 19 16 17 14 14 13 13 13 10 8 9 11 11 10 11 11 10 10 10 11 12 12 11 10 11 11 14 17 19 19 20 20
31 31 31 29 27 24 21 18 16 13 13 14 13 14 15 13 12 11 13 12 8 9 10 8 8 9 9 10 12 13 12 12 11 11 12 14 15 13 16 20 21 20 20
33 30 31 32 28 24 21 20 17 17 17 15 14 14 16 14 13 16 15 10 9 10 8 7 7 8 10 12 14 16 15 13 14 15 16 17 17 16 17 20 20 21 22
33 32 31 30 27 22 21 19 18 17 16 16 16 15 14 12 10 10 8 9 7 5 5 6 8 10 11 13 14 16 15 13 11 9 11 10 12 15 18 18 21 20 22
33 32 33 30 26 24 23 20 17 16 14 14 14 13 13 11 9 6 6 5 4 4 5 7 10 9 10 9 10 13 10 8 7 18 8 12 14 13 8 12 16 17 22
33 33 32 31 28 27 26 22 18 16 14 13 11 10 9 10 8 6 6 6 6 5 7 7 7 7 4 3 2 2 3 5 5 7 9 10 11 14 11 8 9 12 17
30 34 32 33 29 27 28 23 17 11 10 10 12 11 12 11 8 8 7 6 6 6 5 5 4 4 2 1 3 1 1 2 7 5 5 11 16 15 12 10 10 11 13
33 34 32 32 32 28 26 25 22 17 14 13 13 14 16 12 10 9 7 7 7 6 6 4 2 2 1 1 2 0 3 3 1 4 4 7 20 17 15 15 15 15 15
34 35 34 32 31 29 29 26 22 18 14 12 13 15 16 12 10 10 10 8 9 8 4 3 2 2 2 2 1 2 2 1 3 1 3 8 20 18 18 14 16 15 15
31 34 33 33 32 31 29 27 24 20 14 14 17 19 15 13 11 10 13 10 9 7 4 2 1 2 4 3 3 2 2 2 3 3 2 5 8 9 10 13 14 18 17

GFSSE_925_spd_006.txt.gz
Wind_Speed
9 16 19 23 24 23 22 23 24 21 21 25 24 24 23 21 19 17 15 13 12 10 9 9 10 10 9 8 7 6 7 7 9 9 9 9 8 8 7 7 6 8 8
14 14 21 24 24 23 22 20 22 20 20 23 24 24 24 20 17 15 13 12 11 9 8 8 9 8 8 7 6 4 5 5 8 8 8 7 5 2 6 6 6 7 8
12 16 23 21 20 20 19 20 20 19 20 22 22 24 21 17 15 13 10 10 8 7 7 7 8 7 6 5 4 4 3 5 5 6 6 5 7 7 6 7 8 8 9
16 18 22 21 19 19 21 22 23 22 24 24 22 21 17 15 14 12 10 8 7 6 5 6 5 4 3 3 3 4 3 2 3 5 3 4 6 7 6 6 7 8 10
18 20 20 20 21 22 21 22 23 25 25 20 18 17 17 15 13 10 8 7 6 5 4 3 3 3 3 4 4 4 3 2 2 3 3 3 3 5 5 4 6 8 10
19 19 20 21 21 20 20 21 21 23 22 15 16 15 15 12 10 7 6 5 3 3 2 2 3 3 4 5 5 4 3 1 2 2 5 4 2 3 5 4 6 8 9
20 19 20 20 20 20 19 19 19 19 19 17 15 13 12 11 8 6 5 3 1 1 2 3 4 5 6 6 5 4 3 3 3 3 5 6 3 3 5 5 7 9 8
19 19 18 18 18 19 19 20 20 19 18 16 13 12 10 9 8 6 3 1 1 1 3 5 6 6 6 6 5 4 4 4 6 5 4 7 6 4 4 8 8 8 10
18 18 17 19 18 20 21 20 18 17 16 15 13 11 10 7 6 4 3 2 2 3 5 6 7 7 6 5 4 4 5 5 7 4 4 8 9 7 6 9 9 9 10
18 17 19 19 19 20 18 17 17 15 15 15 13 11 9 6 6 5 4 5 4 5 6 7 6 6 6 5 4 5 4 4 6 7 6 7 7 10 9 10 11 11 11
17 16 18 19 19 19 17 15 14 14 14 13 10 9 6 6 6 6 6 7 7 5 5 5 6 6 7 5 4 4 4 5 7 8 8 8 10 11 12 11 11 12 12
21 19 19 19 19 18 17 15 15 14 12 12 11 10 9 9 8 8 8 6 7 4 3 2 3 5 6 6 7 8 9 7 7 8 8 8 9 12 12 11 12 12 14
25 22 22 21 19 19 18 16 15 14 13 12 12 11 10 8 7 5 4 2 1 3 3 2 4 4 5 6 7 9 11 9 9 10 10 11 12 12 12 14 13 14 14
25 25 23 22 21 21 19 18 16 16 16 15 14 13 13 10 6 4 3 2 3 5 4 4 6 6 6 10 12 11 10 9 11 12 12 11 9 11 11 13 15 15 15
25 26 25 23 22 21 21 18 18 17 17 14 14 15 14 11 7 5 4 5 6 7 7 8 7 7 10 11 11 12 11 11 10 9 8 10 10 12 11 13 14 15 16
25 26 24 24 23 22 22 20 18 17 16 14 14 14 14 12 10 8 8 7 8 9 9 9 10 11 10 11 10 9 10 10 11 12 9 9 10 12 14 13 14 15 16
28 27 26 25 22 22 23 18 18 17 16 15 15 15 15 12 11 10 9 10 8 8 9 10 9 9 9 8 7 8 11 12 11 11 10 9 9 10 13 14 15 16 17
27 29 28 25 25 22 23 21 19 18 18 19 19 17 16 14 12 12 11 11 9 8 9 9 7 7 8 9 10 12 12 11 10 10 11 12 11 11 13 12 14 15 17
30 29 30 27 26 25 21 19 18 16 14 13 14 13 13 14 11 12 13 12 8 9 8 6 5 6 9 11 12 14 13 12 10 8 8 9 10 12 14 14 12 15 17
32 31 30 29 28 23 21 20 18 16 17 16 15 13 12 13 12 11 9 7 8 6 4 4 6 8 10 10 13 14 13 6 10 6 8 9 9 7 7 12 12 10 15
33 32 30 30 31 27 26 22 19 18 17 17 16 13 13 11 9 9 6 6 5 4 5 5 7 7 8 7 8 12 5 2 7 8 6 9 11 11 9 4 4 6 10
33 34 32 31 29 29 27 24 21 19 15 15 13 13 12 12 11 8 6 5 5 5 5 7 7 6 4 4 2 2 3 2 3 6 8 9 14 10 8 7 5 5 5
30 35 34 33 33 31 27 24 19 13 12 11 14 11 11 11 10 8 6 6 5 5 6 5 6 5 4 3 3 1 1 1 5 3 3 7 17 13 12 9 8 8 8
33 36 35 33 34 33 28 27 25 20 16 16 14 14 13 13 11 8 6 6 6 7 6 7 5 4 4 3 1 2 2 1 1 3 5 6 15 14 13 14 13 10 10
34 36 35 34 34 34 31 28 27 23 19 14 14 14 16 15 12 11 11 9 9 9 8 5 5 5 5 4 2 2 2 1 2 2 3 7 13 11 11 13 13 12 14
30 35 36 36 35 33 31 28 27 25 21 17 15 15 17 17 14 14 15 13 10 11 8 6 5 5 5 5 5 4 4 3 4 3 2 3 4 6 12 13 12 11 15

GFSSE_925_spd_009.txt.gz
Wind_Speed
9 12 21 23 23 20 20 21 20 19 22 22 22 23 20 17 15 13 13 11 11 11 10 10 11 11 10 10 9 8 7 7 7 8 9 9 9 8 7 6 6 6 9
11 13 21 22 19 17 20 20 20 22 24 21 22 21 18 16 14 12 11 10 9 10 9 9 10 10 10 9 9 8 5 5 6 7 7 6 5 5 7 5 7 6 6
11 13 17 22 20 18 19 19 19 20 23 22 21 20 17 14 10 8 9 8 8 8 8 9 8 8 8 9 9 7 5 2 4 6 4 5 7 7 7 6 7 7 9
13 16 17 19 20 18 20 19 18 19 20 20 20 19 13 10 8 6 6 6 6 7 8 7 6 7 8 8 8 7 4 2 2 2 4 4 5 5 6 7 7 7 10
15 17 16 16 17 17 19 18 18 18 18 17 17 14 10 9 8 6 5 4 5 6 6 4 5 6 7 8 8 7 5 4 1 2 2 3 4 3 5 6 6 7 9
16 16 15 15 15 17 17 17 18 19 18 15 14 13 12 10 7 5 4 4 4 4 4 4 6 7 7 7 8 6 5 3 4 4 1 1 4 2 3 5 5 7 8
16 15 14 16 16 16 16 17 19 18 15 15 14 12 10 7 5 4 3 3 3 3 4 5 6 6 7 7 7 7 6 4 4 4 1 2 1 2 3 6 6 6 8
16 15 15 16 17 17 17 17 19 18 14 14 11 10 8 6 4 3 1 2 3 3 4 6 7 7 7 7 7 7 6 4 5 5 2 3 3 1 3 4 6 7 7
15 15 14 15 16 16 17 17 18 17 15 11 9 8 7 6 4 2 1 2 3 3 5 6 7 7 7 5 6 7 8 6 3 4 4 2 4 4 4 6 5 6 8
14 14 15 15 15 15 15 15 15 14 12 11 10 8 7 5 4 3 3 5 5 5 5 6 5 5 6 5 4 5 6 7 5 4 4 4 4 6 6 7 6 7 7
14 14 15 15 15 16 14 13 12 11 11 11 8 7 5 4 4 4 5 7 6 5 4 5 3 5 6 5 3 4 7 7 7 5 6 5 5 7 9 9 8 9 8
17 16 16 16 15 15 12 12 11 11 10 11 9 8 6 6 6 7 7 7 5 4 3 3 4 5 6 5 5 7 6 8 7 7 5 4 5 6 8 11 10 10 11
18 16 16 15 14 14 12 11 12 10 10 10 10 9 8 7 6 5 3 2 1 2 2 2 4 4 4 5 7 7 7 7 7 8 8 9 8 8 9 11 10 12 12
17 15 16 16 15 15 14 13 12 11 10 9 10 11 9 8 7 5 3 2 1 2 2 2 4 5 6 8 8 8 8 7 7 8 9 8 7 6 7 10 13 13 13
20 18 17 17 16 15 16 14 13 13 12 12 12 13 11 11 8 7 6 4 4 3 2 4 5 6 8 8 7 7 7 8 7 7 8 9 7 6 7 7 11 15 15
20 20 19 19 18 16 17 18 15 14 14 13 13 13 15 15 10 9 8 6 4 6 4 5 5 5 6 7 8 7 8 9 8 9 8 8 7 6 8 8 9 13 17
21 20 22 20 19 19 19 19 18 15 14 14 14 15 13 13 12 9 10 7 6 6 7 6 6 4 4 5 6 7 9 10 9 8 6 7 7 7 7 8 10 12 14
19 20 20 19 19 19 18 19 16 15 15 15 16 14 15 14 13 11 10 8 8 7 6 5 5 5 4 5 7 9 9 9 9 8 7 6 8 9 10 10 8 10 13
22 21 21 20 19 19 20 19 20 17 17 14 13 15 13 12 12 10 9 9 8 7 7 4 2 4 6 7 8 9 8 7 6 5 5 4 4 6 8 10 9 9 11
21 21 20 21 20 21 19 17 16 18 16 15 13 12 12 12 12 11 9 7 7 5 2 2 3 4 5 7 9 9 6 2 5 4 5 6 8 7 4 4 5 5 8
21 21 21 21 23 21 17 17 15 14 13 12 15 15 14 13 11 10 7 6 5 4 3 3 3 4 4 4 7 7 1 2 7 4 4 5 8 6 7 7 4 1 3
24 24 23 23 22 24 20 15 13 12 12 11 10 12 12 12 12 11 8 6 6 4 4 4 3 3 4 3 4 3 2 3 1 3 5 7 9 7 7 6 6 6 5
25 25 25 26 26 23 20 15 14 12 11 8 10 10 13 13 12 10 8 6 5 5 4 2 1 2 3 1 2 3 1 1 6 0 2 5 9 9 9 8 8 8 8
27 25 25 28 28 23 23 19 19 17 14 12 11 11 10 11 11 11 9 7 6 6 4 2 2 1 1 2 1 1 1 2 2 1 1 2 5 7 9 8 9 9 10
27 25 25 29 29 25 25 23 20 18 15 10 9 9 11 12 13 12 10 8 7 7 6 5 3 2 2 2 2 2 2 1 2 2 4 6 4 4 6 7 5 4 7
26 26 26 29 34 31 28 26 23 20 18 14 11 11 12 14 15 16 13 12 10 9 9 6 5 4 3 3 3 4 2 2 3 4 4 6 8 5 8 7 7 6 6

GFSSE_925_spd_015.txt.gz
Wind_Speed
10 16 21 23 22 23 23 20 20 20 20 24 23 21 19 17 17 17 17 16 15 15 14 15 14 14 13 13 12 11 10 9 8 8 9 10 9 8 6 5 3 7 9
18 19 21 19 20 20 19 18 20 19 20 21 20 19 17 15 16 16 15 14 14 14 13 13 12 13 12 12 11 10 8 7 6 4 6 10 12 8 6 7 10 11 11
23 21 19 18 18 19 18 19 20 19 18 18 17 16 14 15 14 13 13 12 12 12 11 11 11 11 11 11 11 9 7 5 4 3 3 6 11 9 8 7 9 11 12
25 21 17 17 18 16 15 16 18 16 15 15 14 13 12 12 11 12 11 10 10 10 10 10 10 10 10 9 9 9 7 4 3 2 6 6 11 11 9 8 11 13 11
23 21 17 17 16 15 15 16 17 15 14 13 12 10 9 9 10 10 9 9 9 9 9 9 9 9 8 7 7 6 5 5 4 2 5 5 11 10 9 9 10 11 9
20 18 18 16 15 14 14 16 15 14 13 12 10 8 8 8 8 8 8 8 8 7 8 8 9 8 7 6 6 5 4 3 2 5 6 6 9 9 9 9 9 10 11
18 18 17 15 14 14 14 15 14 13 12 10 7 7 7 6 6 6 6 6 6 6 7 8 8 8 7 5 5 5 4 3 2 2 6 8 10 9 9 9 9 9 11
19 19 16 15 15 14 14 14 14 12 10 9 8 7 5 4 4 4 4 5 5 4 5 6 7 7 7 5 5 6 6 3 4 3 4 9 6 8 9 9 9 9 9
18 20 17 15 14 13 14 15 13 10 10 9 8 6 4 3 2 2 2 3 3 3 5 6 6 6 6 5 5 5 5 5 1 5 3 4 6 8 7 9 9 8 9
23 20 18 17 15 14 13 14 11 9 9 7 7 6 5 4 1 0 2 2 4 2 2 3 3 4 4 4 5 6 4 5 4 6 5 6 3 6 7 8 8 10 10
17 17 17 19 17 15 14 12 11 9 9 7 6 6 4 7 5 4 4 6 6 3 2 2 3 4 1 2 4 9 5 3 1 2 9 3 2 5 8 8 8 9 11
17 20 20 21 16 16 15 12 11 10 9 9 8 8 5 5 3 3 4 4 3 2 2 0 4 3 4 5 5 7 6 9 7 6 8 3 2 3 7 10 9 10 10
18 19 23 19 20 16 17 12 13 12 13 10 8 8 7 3 6 4 6 5 4 2 6 4 4 5 5 7 9 9 7 9 7 3 8 3 2 3 7 11 11 10 10
23 19 18 19 17 16 14 14 13 13 11 10 10 9 7 6 7 4 5 4 4 5 4 4 1 5 7 7 7 7 8 6 8 5 4 4 3 3 8 10 12 11 11
20 19 19 19 17 15 11 13 12 10 11 10 8 9 9 9 4 5 5 6 6 7 7 6 8 5 6 9 10 7 8 7 6 7 4 4 4 4 7 9 9 12 12
20 20 19 19 18 16 15 9 10 9 9 10 9 9 8 9 3 6 8 7 6 7 8 6 6 9 7 7 6 5 10 10 8 8 8 4 4 2 7 10 10 9 12
21 20 20 19 19 17 16 14 13 13 12 12 11 9 8 8 8 8 8 7 10 5 6 7 5 5 8 10 6 7 9 7 8 6 7 7 5 4 3 8 10 10 11
22 22 21 20 20 19 18 16 16 15 12 13 10 9 10 10 10 9 11 10 7 7 8 5 8 9 10 7 9 8 7 6 3 5 3 3 4 4 7 6 8 8 11
23 22 22 20 20 20 18 17 16 15 14 10 10 11 11 10 12 11 12 8 7 8 8 6 8 6 7 9 9 6 5 3 3 5 2 1 4 2 3 6 3 7 8
24 22 22 22 20 18 17 17 13 14 12 14 14 10 9 10 11 12 11 8 8 7 8 6 4 8 9 6 9 5 2 1 2 2 2 4 4 2 3 2 7 7 6
24 24 23 23 21 20 18 16 18 19 18 15 13 9 8 10 11 9 10 12 7 10 4 6 6 7 6 2 9 5 5 5 3 2 3 4 4 2 3 4 7 4 6
27 26 25 24 23 23 20 21 20 18 16 16 15 14 12 12 11 11 10 8 7 5 2 3 4 6 5 2 8 6 2 7 5 6 5 3 4 3 3 3 3 4 5
29 28 27 27 25 24 23 21 14 11 10 6 12 11 11 11 11 10 7 8 3 3 6 3 3 2 9 2 1 7 2 3 7 7 6 5 3 3 3 3 4 2 2
31 30 27 27 26 24 24 21 20 17 17 17 14 13 11 11 11 11 9 7 6 5 2 2 3 4 2 4 1 3 3 6 5 3 7 6 4 4 2 2 2 2 1
31 30 29 28 27 26 25 24 20 21 16 11 11 6 10 9 12 11 10 8 6 6 6 2 2 3 2 5 2 1 2 3 1 6 6 8 3 5 1 3 3 2 2
32 31 30 30 28 28 26 26 21 18 20 15 14 12 12 13 12 12 12 10 8 7 6 6 5 5 5 2 4 1 4 3 1 3 5 6 5 7 4 5 5 5 5

GFSSE_925_spd_021.txt.gz
Wind_Speed
17 21 26 25 24 25 23 24 24 24 25 24 24 23 22 22 21 20 20 19 18 15 14 13 12 11 10 9 9 10 10 11 12 11 11 11 12 14 12 15 14 15 15
22 23 26 26 24 24 25 25 24 24 23 23 22 21 20 20 19 19 17 17 16 14 12 12 10 10 9 8 7 8 8 9 7 8 9 10 10 13 14 16 15 16 16
23 25 25 24 23 23 24 25 24 23 23 22 21 20 19 18 17 16 15 14 14 13 10 10 9 8 7 8 7 6 7 6 5 5 8 9 11 12 13 15 18 17 17
25 26 26 23 23 24 24 24 22 20 20 21 20 19 17 16 16 14 13 12 12 11 9 8 7 7 6 7 7 8 7 5 4 1 4 10 10 11 13 17 15 16 19
24 25 25 23 24 24 24 23 21 19 18 17 16 16 15 15 13 12 11 10 10 9 7 6 6 5 6 6 7 7 6 6 9 11 16 14 12 13 15 13 16 16 17
28 27 25 23 23 24 23 21 19 18 17 14 14 13 13 12 12 11 9 9 8 6 6 6 6 6 6 7 8 6 6 9 11 14 17 10 13 13 13 13 13 15 16
27 27 24 23 23 23 22 19 18 17 15 13 12 13 11 11 10 8 7 7 6 4 5 5 6 6 7 8 9 6 6 8 6 10 10 9 12 14 13 14 13 13 15
30 27 24 22 22 23 20 18 17 16 14 12 12 11 9 9 8 7 7 5 4 4 4 5 6 7 8 9 7 7 6 9 9 4 6 8 12 12 12 12 14 12 13
27 25 24 23 21 20 19 17 16 15 13 11 11 9 7 6 5 4 4 4 4 4 5 5 6 6 7 6 5 6 10 9 28 4 2 5 10 13 14 13 13 13 12
29 24 24 23 22 22 20 17 15 14 13 12 10 7 4 4 2 2 1 3 6 5 5 6 6 7 6 5 6 8 5 7 10 9 2 10 7 11 13 14 14 13 13
28 25 24 23 22 22 20 17 15 14 13 10 8 6 4 2 1 5 3 3 5 3 4 6 6 6 8 9 7 17 1 3 14 12 11 9 11 13 14 13 13 15 12
29 31 25 23 23 21 19 18 15 14 11 9 8 6 3 2 2 2 5 3 1 3 3 4 5 5 9 11 12 12 11 4 6 7 11 12 11 14 15 14 14 14 13
29 31 32 27 24 23 20 18 14 14 12 12 10 7 3 3 5 7 5 4 1 1 1 4 6 6 6 6 10 13 15 10 12 9 12 12 10 11 13 12 14 14 15
25 28 35 30 25 27 24 20 18 17 17 15 14 14 12 3 6 6 3 2 4 3 3 4 2 5 3 6 9 6 12 9 6 9 13 8 6 8 10 12 13 14 14
35 36 34 33 28 27 27 20 21 19 20 20 16 18 10 8 8 3 2 2 3 2 2 2 3 3 8 7 6 6 7 6 5 7 4 3 2 0 7 12 11 13 13
33 37 34 33 31 25 26 18 16 18 22 13 22 19 12 10 7 6 1 4 2 2 2 5 6 8 6 6 7 7 4 2 2 1 5 2 3 3 4 7 8 12 15
36 38 39 33 33 26 24 18 11 10 9 8 14 14 12 11 6 5 5 2 5 3 2 3 5 5 8 10 8 1 4 3 4 2 1 3 6 4 2 5 9 10 11
33 38 37 36 34 29 26 16 13 11 7 8 4 11 11 12 9 5 4 4 3 1 1 2 4 6 9 6 6 4 6 4 4 5 4 4 5 5 7 5 6 8 8
37 42 40 35 37 31 26 20 14 18 12 9 11 7 13 12 9 6 4 5 7 3 2 2 2 3 7 8 5 11 2 8 6 5 5 5 4 4 8 7 4 3 7
35 42 41 37 34 30 29 25 19 15 15 16 11 10 16 14 12 7 6 2 5 6 3 2 3 3 4 8 8 10 4 2 3 2 12 8 11 10 4 6 3 2 3
36 38 36 31 34 35 33 30 24 23 17 20 19 16 15 18 13 12 11 10 5 2 5 5 2 2 4 6 2 8 3 3 4 16 14 9 13 15 12 12 8 4 3
37 39 39 34 27 37 35 31 26 22 19 17 16 15 20 18 15 11 10 9 10 7 10 9 2 3 2 1 3 2 2 2 1 11 7 7 10 9 12 8 8 4 4
36 40 42 40 32 29 30 29 24 20 19 16 15 19 19 19 15 12 9 8 6 10 14 8 7 4 3 3 5 5 3 0 1 10 11 10 8 4 5 3 4 7 6
35 42 42 42 40 32 28 30 26 21 20 21 23 23 24 22 18 13 12 13 11 9 14 10 9 5 3 4 2 5 4 3 2 1 6 8 8 8 8 6 6 8 6
38 41 44 45 42 39 34 29 26 26 28 21 18 21 25 22 17 16 16 15 16 11 11 13 11 8 5 4 5 1 3 2 2 2 2 2 8 11 10 10 10 9 6
37 40 41 43 43 42 39 34 31 30 28 26 23 16 21 24 20 20 19 19 17 15 15 14 12 12 10 6 4 5 6 0 1 2 1 2 1 12 14 10 11 8 10

GFSSE_925_spd_024.txt.gz
Wind_Speed
19 23 23 20 20 22 24 24 26 28 28 28 26 24 23 22 21 19 18 15 15 13 12 13 11 10 8 10 11 11 12 13 12 12 11 10 11 12 11 11 12 12 14
20 22 22 23 23 24 24 24 26 26 25 25 23 22 21 20 19 18 15 14 12 11 11 12 10 9 8 10 9 9 10 11 11 11 10 10 8 10 12 12 11 13 13
24 25 24 24 24 24 25 25 24 23 23 22 21 20 19 18 16 15 13 11 11 10 10 10 9 8 7 8 8 8 7 8 9 9 9 10 9 11 16 12 13 12 13
27 25 24 23 24 25 25 25 23 21 22 20 19 18 17 16 14 13 11 10 10 10 9 8 7 6 5 7 8 8 7 8 7 5 8 10 7 10 14 14 13 13 12
27 26 23 24 23 24 24 24 22 21 20 19 17 16 15 14 12 11 10 9 9 10 8 7 5 4 5 6 8 7 8 10 7 9 11 8 9 11 14 14 13 13 13
28 26 23 23 22 23 22 21 20 19 17 16 15 13 13 12 11 10 9 9 8 8 7 6 5 4 6 7 8 8 12 11 12 15 12 9 12 11 11 15 13 12 12
29 26 24 24 23 23 21 20 19 17 15 14 13 12 11 10 9 8 8 8 7 7 5 5 6 6 7 8 10 10 11 9 8 11 9 10 11 12 12 12 14 13 13
31 27 24 23 23 23 20 19 18 16 14 13 13 11 9 9 7 7 7 7 6 6 5 4 5 7 7 9 10 8 7 9 8 12 11 10 12 13 13 13 14 14 12
29 28 24 23 21 20 20 19 18 16 13 13 12 10 8 7 6 5 4 6 5 5 5 5 6 7 9 11 11 9 6 7 4 12 12 14 12 12 12 13 14 13 12
29 28 26 24 22 21 19 18 17 16 14 13 12 9 7 6 5 5 3 2 4 3 5 6 6 7 8 10 7 2 4 4 3 8 10 14 13 13 13 13 12 13 13
29 28 26 25 24 22 21 18 17 16 14 14 11 9 7 5 4 2 1 1 4 3 5 6 6 7 8 3 3 6 0 2 2 5 7 12 12 13 12 13 14 13 12
26 29 28 27 26 24 22 20 19 18 16 14 11 10 9 4 3 4 2 1 3 4 5 4 4 4 6 6 3 2 3 3 2 7 3 11 11 13 13 13 13 14 14
33 31 30 29 28 26 25 22 20 19 16 15 14 11 9 5 5 6 4 2 4 2 2 4 4 2 3 4 6 8 5 9 8 7 8 9 11 11 15 15 15 14 13
30 33 31 31 30 28 25 23 21 20 19 17 16 13 9 7 6 9 4 3 4 2 2 3 1 2 3 4 4 7 7 6 8 9 10 8 7 8 11 16 16 17 16
32 33 34 33 33 30 28 26 23 21 21 18 16 15 13 10 10 8 4 4 3 3 3 1 3 0 3 3 8 4 4 6 7 11 9 7 6 6 10 11 15 16 16
35 37 37 35 34 32 29 26 23 22 20 18 18 15 17 14 9 8 6 3 2 4 4 2 1 2 1 3 3 2 4 4 8 8 9 8 6 3 6 10 12 14 15
36 40 42 38 35 33 29 27 20 23 19 21 22 20 19 15 11 9 7 4 2 3 7 3 0 1 3 4 4 3 3 2 7 6 6 7 7 6 3 7 9 8 11
34 37 41 38 36 33 30 28 17 9 18 18 15 23 22 17 12 8 7 7 4 3 3 2 2 1 4 3 3 4 7 3 9 7 6 4 7 9 7 2 5 7 7
37 39 42 38 37 37 31 30 22 16 14 12 14 19 21 18 13 10 7 8 6 8 5 4 2 1 2 1 1 3 1 8 7 8 6 7 5 4 10 6 4 4 6
37 42 44 41 39 39 33 29 26 20 17 13 12 14 17 20 17 12 11 9 9 8 6 5 6 0 0 5 1 1 3 5 7 9 11 9 10 10 8 8 7 6 4
37 39 41 38 42 40 36 30 25 23 23 19 15 17 17 18 17 16 13 9 9 9 7 7 5 2 1 3 2 4 5 4 7 14 13 12 12 12 11 8 6 5 5
41 40 40 43 44 44 39 33 29 26 22 22 19 20 18 19 20 19 17 15 13 9 7 9 4 5 3 1 2 2 3 4 8 11 11 13 13 9 11 7 5 4 6
37 42 43 47 47 45 40 35 30 26 23 22 18 19 19 19 23 20 17 15 14 12 13 12 7 8 5 4 3 3 2 2 1 6 9 13 13 9 7 6 4 6 7
40 43 44 43 47 46 43 38 35 29 25 28 26 20 21 26 25 20 18 14 13 15 16 14 10 10 8 8 6 4 4 5 3 0 3 7 7 7 7 6 5 5 6
40 41 45 47 46 44 44 41 39 35 33 28 27 26 21 27 25 21 19 17 16 15 18 16 13 12 11 9 9 10 10 7 4 3 2 3 8 9 10 8 11 7 7
38 40 41 43 43 44 43 43 42 38 35 28 26 22 21 26 27 24 22 19 19 17 19 16 15 14 13 11 8 12 8 4 5 4 2 1 3 7 14 12 14 15 12

GFSSE_925_spd_027.txt.gz
Wind_Speed
24 29 25 22 24 22 22 24 26 28 28 26 24 22 20 19 18 17 16 13 12 12 11 11 12 13 11 10 11 11 12 12 11 10 10 10 10 12 12 11 11 12 12
26 26 24 22 23 22 23 25 25 27 25 24 23 20 19 18 17 15 14 12 11 11 10 10 11 11 10 9 9 10 11 10 10 10 10 10 8 10 10 9 9 12 12
23 23 24 22 22 23 23 24 23 24 23 22 21 19 17 16 14 14 12 11 10 9 8 8 10 9 7 6 8 10 10 7 8 9 11 12 11 12 12 11 11 11 11
25 23 25 23 23 22 22 22 23 20 20 20 19 17 16 14 12 12 11 9 8 7 7 8 8 7 6 6 7 7 7 7 7 8 12 12 11 12 12 11 11 12 11
26 23 24 24 23 22 21 20 21 19 19 18 16 16 14 12 11 10 9 8 8 7 7 7 7 6 6 7 7 6 5 6 8 9 8 9 13 13 13 12 12 11 11
26 25 22 23 23 22 20 20 20 18 17 16 15 15 13 11 9 8 8 7 7 7 7 7 7 6 7 7 9 5 5 8 10 10 8 9 14 14 13 13 12 13 13
27 24 22 23 23 21 19 19 18 16 15 14 14 13 11 9 8 7 7 6 6 7 7 7 8 7 7 9 8 4 4 12 9 10 9 12 14 12 14 12 12 12 13
28 24 23 22 22 21 19 18 17 15 13 13 12 11 10 8 7 7 6 6 6 5 6 6 8 8 8 7 5 4 3 7 6 11 10 11 13 12 12 13 12 11 12
27 25 23 22 21 20 19 18 16 15 13 12 11 10 8 7 7 6 6 6 5 4 4 5 8 9 7 5 5 4 6 6 6 10 11 12 14 12 11 11 12 11 12
27 25 25 24 23 22 20 18 17 15 12 12 11 10 8 6 4 3 3 4 4 4 4 5 6 6 5 2 3 3 5 1 6 7 8 10 12 11 11 11 12 12 12
27 27 26 26 25 23 22 19 17 16 14 13 12 9 8 6 3 3 1 3 4 4 4 4 5 6 3 2 4 6 2 1 1 5 7 10 10 12 12 11 10 11 11
26 29 28 27 26 24 22 20 19 17 16 15 13 10 8 5 3 2 2 3 3 5 3 2 2 3 2 4 1 3 3 2 4 7 5 11 11 11 11 12 11 12 11
32 31 31 30 27 27 25 23 21 20 18 16 14 12 9 7 4 5 3 5 6 4 4 3 0 3 2 3 2 2 4 4 3 5 4 9 10 11 12 11 12 11 12
27 33 33 31 30 28 25 25 23 22 20 18 15 13 10 8 5 8 6 4 5 5 4 3 1 2 4 3 2 5 5 5 5 6 6 8 8 8 9 12 12 12 12
30 32 35 33 32 30 27 25 24 24 21 18 16 15 12 9 9 10 7 6 4 2 3 2 3 2 2 2 4 1 2 1 5 7 7 7 4 5 8 10 13 15 14
33 34 36 35 33 31 30 28 26 23 20 18 18 16 15 12 11 12 6 6 5 5 3 2 1 2 1 2 3 0 3 4 6 9 9 8 5 3 6 8 11 14 15
35 35 36 37 35 34 32 29 27 23 21 20 21 18 17 16 14 12 8 6 5 6 7 5 2 1 3 1 2 2 2 7 10 9 9 9 7 5 1 7 8 10 12
30 34 37 36 36 35 33 29 25 23 23 21 20 19 20 18 17 11 9 9 6 3 7 4 4 3 2 2 2 5 5 6 5 7 7 7 9 8 5 2 5 7 7
35 35 38 37 36 36 34 30 25 19 17 22 17 17 22 21 18 14 9 9 9 7 6 3 3 3 1 2 2 2 4 1 9 8 6 5 6 8 9 6 4 4 6
34 35 40 41 39 38 35 32 27 21 16 17 17 17 20 23 21 16 12 10 10 9 8 5 5 3 2 1 2 1 4 3 9 8 7 8 6 6 9 7 7 6 6
33 34 37 37 39 37 36 33 32 27 23 21 19 17 18 25 22 19 15 12 12 12 9 6 7 5 4 2 1 5 5 2 7 11 8 10 8 9 8 8 6 5 4
39 42 39 41 41 42 39 37 33 34 30 26 22 18 19 22 23 21 18 15 13 13 10 10 9 7 7 4 2 4 1 3 8 10 11 11 10 9 8 6 3 4 4
35 40 44 45 43 44 40 38 32 30 30 25 24 23 21 20 25 23 22 17 16 15 13 14 11 8 7 7 6 3 2 3 2 5 10 12 10 10 9 6 3 2 4
39 41 43 43 43 46 43 40 35 29 25 30 28 21 21 22 26 25 22 20 18 18 17 16 12 12 10 8 4 3 2 3 3 1 4 9 9 9 7 5 4 4 4
39 40 42 44 44 43 47 41 38 30 33 30 29 25 23 22 22 23 23 21 18 18 18 18 16 14 12 9 7 3 1 3 5 3 2 5 9 10 10 9 7 6 6
35 37 40 42 44 43 47 46 41 35 35 34 29 29 28 25 22 25 24 22 19 18 19 19 17 14 13 11 9 8 3 2 3 3 2 2 4 4 11 11 12 11 11

GFSSE_925_spd_030.txt.gz
Wind_Speed
26 25 22 24 24 21 23 24 24 24 26 26 23 20 18 17 15 14 13 13 13 11 11 11 10 10 10 10 10 11 12 10 9 9 10 10 11 12 12 12 13 14 14
35 25 20 22 22 22 22 23 23 25 25 22 21 19 18 16 14 13 12 13 11 11 10 10 9 9 9 9 9 9 9 9 9 9 10 9 10 10 12 11 13 13 14
31 25 21 22 22 23 23 24 23 23 21 20 19 18 17 14 13 12 11 10 9 9 8 9 9 9 8 7 6 7 7 7 8 9 11 10 11 11 10 12 12 13 12
26 24 23 23 23 23 23 22 21 20 19 18 17 16 15 13 11 10 9 9 8 8 8 8 8 8 7 6 4 4 5 7 7 9 11 12 12 11 11 12 14 12 14
24 24 23 24 23 22 21 20 19 18 17 17 15 14 13 12 10 9 9 8 8 8 8 8 8 7 6 6 5 3 3 6 8 7 8 11 12 11 12 11 12 13 13
24 24 24 23 22 21 20 19 18 17 17 15 14 13 12 10 9 8 7 7 8 8 7 8 8 6 6 6 6 4 4 5 8 7 7 11 13 12 11 13 12 12 11
25 23 23 23 22 20 19 18 17 16 15 14 13 11 11 9 8 7 6 6 7 7 8 9 8 7 7 5 4 5 4 8 8 9 9 11 13 12 12 11 12 12 12
27 24 23 21 21 19 17 16 16 15 14 12 11 10 9 8 7 6 5 6 6 6 8 9 8 8 7 7 6 4 6 4 7 8 9 11 12 12 11 11 11 12 11
25 23 22 22 20 18 17 16 15 13 13 12 11 9 8 7 6 5 5 4 5 7 8 9 8 7 6 6 8 4 5 4 6 7 9 10 11 11 11 11 8 10 10
25 24 23 23 22 21 18 16 15 13 12 11 9 8 6 6 4 3 3 3 4 6 8 7 6 6 6 6 7 4 2 5 4 4 7 9 10 10 10 11 11 10 9
24 25 24 24 23 22 20 17 15 13 11 10 9 7 6 4 2 1 3 4 3 5 6 6 5 5 5 5 5 5 2 2 3 3 6 9 10 9 10 10 10 10 10
25 27 26 25 25 23 21 19 17 15 12 12 10 8 5 3 3 1 2 2 1 2 3 3 2 3 2 5 4 4 1 1 3 4 5 8 8 10 10 10 10 10 10
28 27 28 28 26 24 23 21 19 17 14 13 11 9 6 5 3 4 4 3 3 3 2 3 1 1 2 2 2 4 2 3 3 4 2 7 8 9 10 10 10 10 9
28 31 30 29 28 27 24 23 20 19 16 15 13 11 9 7 4 5 5 4 4 4 2 1 2 3 3 3 3 5 6 2 3 2 3 4 5 5 9 9 9 8 9
28 32 33 32 31 29 27 24 22 21 19 17 15 12 11 8 6 6 6 5 5 2 3 4 3 2 3 6 4 2 2 2 4 4 3 4 2 3 5 9 10 9 9
30 33 34 34 32 30 29 26 24 22 20 18 16 15 13 11 7 8 8 7 8 6 4 1 2 2 1 2 1 0 1 3 6 5 4 5 3 1 2 5 8 12 10
30 34 35 34 33 32 30 28 26 23 21 19 18 16 15 14 11 9 10 8 7 6 4 4 1 2 3 1 5 4 3 4 5 5 5 6 4 3 1 4 5 7 10
29 32 34 34 34 33 32 29 27 24 22 20 20 20 18 15 13 13 12 9 7 5 5 5 3 4 2 3 3 2 4 6 1 3 4 6 6 5 2 0 2 3 5
34 34 33 33 35 35 33 31 28 25 23 22 22 20 18 18 13 15 14 10 8 6 5 4 3 2 2 4 2 1 3 2 8 5 3 3 4 5 5 1 1 2 4
33 35 34 34 35 34 33 32 28 25 22 21 22 22 17 18 19 17 14 11 10 8 7 5 3 3 1 3 1 2 4 4 7 5 5 3 3 4 6 5 3 3 3
30 33 36 35 36 33 33 32 31 29 25 20 17 17 17 17 20 20 17 13 11 10 8 6 5 4 2 1 1 4 6 3 3 5 6 4 1 3 4 3 3 4 1
34 38 40 42 40 39 37 36 30 32 30 24 21 20 19 18 21 22 21 16 13 11 11 9 7 5 5 3 2 3 2 3 4 3 5 5 5 5 3 1 1 1 2
33 37 41 45 44 43 41 35 30 26 30 29 27 24 21 19 18 23 23 20 15 13 13 11 10 8 7 5 4 3 2 2 1 1 3 5 5 5 5 3 4 4 4
38 40 41 40 40 43 42 36 34 29 26 31 34 29 26 22 21 22 23 21 18 16 15 14 13 10 9 8 3 3 2 4 2 0 2 4 5 6 5 4 3 4 4
35 38 41 44 45 44 45 43 40 32 32 32 33 31 26 25 23 21 24 23 21 18 17 17 17 14 12 10 8 4 4 3 5 3 2 4 8 9 8 7 6 5 5
32 33 35 37 43 43 44 46 41 36 32 32 29 29 27 24 23 22 19 22 22 19 18 19 19 15 13 13 11 8 7 4 5 4 2 3 6 7 11 12 11 9 8

GFSSE_925_spd_033.txt.gz
Wind_Speed
22 26 23 22 23 22 22 22 23 23 23 22 20 17 16 15 13 12 11 11 10 9 9 11 9 9 8 9 10 11 10 9 9 9 9 10 10 11 11 12 13 11 13
28 23 20 23 23 23 23 23 24 23 23 21 18 16 15 14 13 11 11 10 10 10 9 10 9 8 7 8 9 10 8 8 8 8 10 10 11 11 11 12 14 13 14
28 21 19 21 22 22 23 24 24 24 21 19 17 16 14 13 11 10 9 9 9 9 9 9 9 7 7 6 7 5 6 8 8 6 8 8 8 10 11 12 13 13 14
23 21 19 21 24 23 23 25 23 20 19 18 17 15 13 12 10 10 9 10 9 9 8 8 8 7 6 5 5 3 5 7 8 7 7 9 10 10 10 14 13 13 13
21 21 20 23 23 23 23 22 20 19 18 17 15 13 11 10 9 9 9 11 9 8 8 7 7 6 6 5 4 3 3 5 7 7 6 8 9 10 10 13 13 13 11
22 21 22 22 22 21 20 18 18 17 16 15 14 12 11 9 8 8 8 9 8 8 7 8 7 6 6 6 5 4 5 5 7 6 6 7 9 11 12 12 12 12 13
22 22 21 22 21 20 19 17 16 15 15 14 12 11 9 8 7 8 7 8 8 7 7 8 8 9 8 7 6 4 6 6 6 6 7 8 7 11 11 12 12 13 13
23 23 21 21 20 19 18 16 15 14 13 12 11 10 9 8 8 7 7 6 8 6 7 8 8 9 10 10 9 5 5 5 6 6 7 7 7 9 11 11 11 11 12
23 23 21 20 18 17 16 15 14 13 11 11 10 9 8 7 7 6 6 6 6 6 8 8 8 9 9 10 9 6 4 4 6 5 5 6 8 8 10 9 10 10 10
22 21 21 20 18 16 15 14 12 11 10 10 8 7 5 6 5 4 4 5 6 7 7 7 7 8 7 7 8 4 3 5 5 5 5 6 8 8 8 9 8 9 8
20 21 21 21 19 17 15 13 11 10 9 9 7 6 4 2 1 1 3 5 4 5 6 6 5 7 6 5 5 5 6 4 4 4 5 8 8 7 7 8 8 8 8
24 23 22 21 20 18 15 13 11 9 8 8 7 6 3 3 2 1 1 4 4 4 4 3 3 4 4 4 2 5 1 3 3 3 3 8 9 8 7 9 8 7 7
25 23 22 21 19 18 16 14 12 11 9 8 8 7 5 3 1 1 1 1 2 1 1 2 1 1 1 2 4 3 3 3 3 3 2 6 7 8 8 8 7 8 7
25 25 23 22 20 19 16 15 13 12 11 9 9 9 6 4 2 2 2 1 1 2 1 1 1 2 2 2 4 6 5 3 2 2 1 2 4 4 9 9 9 9 9
26 25 24 23 21 20 18 16 15 14 13 11 11 10 8 5 3 2 2 2 3 3 3 2 2 2 4 4 3 3 2 2 2 1 1 2 2 1 3 8 10 8 8
26 26 24 24 23 20 20 18 16 14 13 12 11 11 10 7 5 3 5 6 5 7 5 2 2 1 3 2 2 2 1 1 0 2 2 2 3 2 0 3 7 8 8
27 25 26 24 23 22 21 20 17 15 14 13 12 14 12 10 8 6 7 6 6 6 4 2 2 3 3 1 6 4 3 0 2 2 3 3 1 1 3 1 3 6 9
26 26 25 23 24 23 21 20 19 16 15 14 14 15 15 13 11 10 9 7 6 6 5 4 2 3 2 1 3 1 1 3 1 3 3 2 2 1 2 2 2 2 4
26 25 25 24 24 24 22 20 19 18 18 15 14 14 16 16 14 11 10 8 8 6 4 2 2 1 1 2 1 2 2 0 5 3 2 1 1 2 2 1 2 2 0
27 25 24 25 25 24 21 20 17 17 17 16 16 17 17 16 17 15 11 12 8 6 6 3 2 1 1 2 3 3 5 4 4 2 2 2 1 1 2 2 2 1 0
27 27 27 26 27 25 24 22 21 21 18 17 17 18 20 19 16 17 13 13 10 8 6 5 3 3 1 1 2 4 5 5 5 3 3 4 4 5 4 2 2 2 2
31 31 30 31 29 30 26 26 20 21 19 19 16 17 16 17 16 17 17 13 11 8 8 7 6 3 1 1 1 2 2 3 4 4 3 4 5 5 5 4 4 4 5
32 33 32 33 32 30 27 21 18 13 14 15 17 16 18 18 17 17 19 17 14 11 8 9 8 6 2 2 2 1 2 2 3 1 1 2 3 4 5 5 5 5 5
35 33 34 33 33 33 32 25 25 24 23 24 22 19 18 21 19 17 19 19 18 12 10 9 10 7 4 5 4 2 2 1 3 4 4 3 3 4 3 3 4 4 5
32 31 32 34 35 34 35 34 30 27 24 19 20 21 26 24 24 21 20 18 19 17 13 12 11 11 7 5 5 5 3 2 3 3 3 6 6 6 5 4 4 4 4
32 31 29 30 34 35 37 38 34 30 28 22 21 20 21 22 21 26 21 19 21 18 16 13 13 13 11 7 6 7 6 4 6 5 4 5 8 5 7 7 8 7 7

GFSSE_925_spd_036.txt.gz
Wind_Speed
16 25 19 18 15 16 18 22 22 20 20 19 16 15 14 12 12 12 13 13 11 10 10 9 10 9 8 9 9 9 9 8 7 8 9 9 9 9 8 13 12 10 13
26 28 20 14 17 18 18 20 21 20 19 17 15 15 13 12 12 12 12 11 11 11 10 9 9 8 8 8 8 7 8 8 8 7 9 9 9 8 11 9 11 12 13
31 26 18 20 20 19 19 21 21 20 17 15 14 14 12 11 12 11 11 10 11 11 9 9 8 7 7 6 6 6 7 7 8 8 10 10 8 7 8 9 11 13 14
27 21 21 23 21 20 20 20 21 17 15 14 14 13 12 12 11 10 12 11 10 9 8 8 8 7 6 5 5 5 5 6 7 9 3 8 9 8 8 10 10 12 13
23 23 21 23 22 20 20 21 18 15 14 14 12 11 11 11 10 11 12 10 8 8 7 7 8 7 5 5 4 5 3 4 8 7 6 4 8 7 9 10 12 12 9
23 22 22 22 22 21 20 18 16 15 14 13 11 10 10 10 9 10 10 10 9 8 8 8 9 8 7 6 6 5 4 4 8 6 6 4 8 8 9 8 10 10 10
25 24 23 23 22 20 18 17 15 14 13 12 11 9 10 9 8 8 9 8 8 7 9 9 10 10 8 7 7 7 7 6 5 6 7 8 8 10 10 10 9 11 10
25 25 23 22 21 19 16 16 14 13 12 11 10 9 9 8 8 7 7 7 6 6 8 8 9 10 10 8 8 7 7 8 6 7 7 10 9 10 11 11 11 10 10
26 25 24 22 19 17 15 14 13 12 11 11 10 9 9 8 7 7 6 6 6 7 7 7 8 9 10 8 7 6 7 9 7 7 7 8 9 8 10 11 10 11 10
25 25 24 22 19 17 14 14 12 11 10 10 9 8 7 6 6 6 7 5 6 6 6 7 7 7 7 7 7 6 8 10 7 6 6 6 8 8 8 8 9 9 10
25 24 24 22 19 16 15 13 11 10 10 9 8 7 5 4 4 4 4 5 5 5 5 5 6 6 6 8 6 8 8 7 6 6 5 5 7 7 7 8 8 7 9
26 25 24 22 20 17 15 13 11 9 9 8 7 6 4 4 3 3 4 5 5 4 3 3 4 4 6 5 6 6 4 6 6 5 6 6 7 5 5 6 6 6 6
27 25 24 22 19 18 15 14 12 10 9 8 7 5 4 3 2 2 4 5 4 2 4 1 2 5 3 4 5 7 5 2 5 5 5 5 7 5 4 7 6 6 5
27 25 24 22 20 19 16 14 12 11 10 8 8 6 4 3 3 2 2 2 3 3 2 2 4 3 3 3 4 6 6 2 5 5 6 5 5 5 7 6 6 7 6
27 25 24 22 21 19 17 14 13 11 11 9 8 7 5 3 3 3 3 1 1 2 2 3 3 3 3 5 4 4 3 4 4 4 7 6 6 3 3 8 8 7 8
26 26 24 23 22 20 18 15 13 12 10 10 9 8 7 5 3 2 3 3 2 2 3 1 1 2 3 1 2 4 2 4 2 2 5 7 5 5 3 4 8 9 9
26 25 25 24 22 21 19 16 14 13 12 11 10 9 8 7 6 4 2 3 2 2 1 1 1 1 0 1 5 3 6 5 4 2 3 6 6 6 4 3 4 7 9
26 26 25 24 23 22 19 17 16 14 14 13 11 10 10 9 8 4 3 2 1 1 1 1 1 3 3 2 5 1 1 3 4 5 6 3 2 6 6 5 4 4 5
27 26 25 24 24 23 20 18 17 16 15 14 13 12 10 10 9 7 5 3 2 1 1 1 2 3 3 2 3 2 3 2 3 10 7 4 4 2 5 5 4 4 3
27 26 25 26 24 23 20 19 17 17 17 16 15 14 12 11 11 10 7 5 3 2 0 1 2 3 3 3 2 5 6 6 4 6 8 5 4 5 5 1 2 5 2
27 28 28 27 26 25 24 22 21 20 19 17 16 14 13 12 11 11 10 7 4 3 2 0 1 2 2 3 5 7 6 7 4 6 3 6 5 3 3 2 1 1 2
31 30 29 29 27 27 24 23 21 20 19 18 17 15 14 14 13 12 11 8 6 4 3 1 1 1 1 1 0 1 5 9 7 6 1 3 4 5 5 3 3 2 2
33 33 32 30 29 27 25 22 19 17 17 19 20 18 15 13 13 12 12 11 8 5 3 2 3 2 2 3 3 3 2 3 8 7 6 3 4 4 4 5 5 5 5
34 33 32 31 30 28 27 24 24 23 22 21 22 19 16 15 14 13 12 10 10 8 5 3 4 4 3 4 5 6 4 7 3 6 7 7 6 5 4 3 4 5 5
32 32 31 30 31 29 29 28 26 24 23 19 20 19 20 17 17 15 13 12 11 11 8 6 6 7 6 4 5 5 5 6 6 6 4 10 9 8 7 6 4 4 4
33 32 31 31 31 31 31 31 28 26 24 22 20 20 20 21 19 19 17 14 13 12 11 10 9 9 9 7 7 6 6 6 7 8 6 4 6 10 9 8 8 7 7

GFSSE_925_spd_042.txt.gz
Wind_Speed
15 14 13 13 14 18 18 19 17 17 17 18 18 16 16 16 17 15 15 14 14 12 12 12 12 12 12 12 12 11 10 10 9 10 10 10 12 10 8 6 10 13 13
21 14 14 15 16 18 17 16 16 17 16 18 15 16 15 15 15 15 14 14 13 12 11 12 11 11 10 10 10 10 9 8 8 8 10 12 10 9 10 9 13 14 14
21 16 15 17 18 17 17 17 17 16 17 15 17 15 14 14 14 13 13 13 12 11 11 10 10 9 8 7 7 7 8 9 8 6 8 13 11 10 11 13 14 14 14
23 18 16 18 17 18 17 17 17 16 15 16 14 15 13 13 13 13 11 11 11 11 11 10 9 8 6 6 6 7 8 9 7 7 5 10 11 10 11 14 13 14 13
23 21 18 18 18 18 18 17 16 15 14 14 15 13 14 12 12 12 11 11 11 11 10 9 8 7 6 5 5 6 9 8 7 3 10 15 14 12 11 13 13 12 14
21 21 20 19 18 18 17 15 15 14 13 13 12 12 12 11 12 11 11 11 11 11 11 10 8 7 6 6 6 5 9 8 5 11 13 16 14 13 12 12 12 12 12
21 20 19 19 18 18 16 15 14 13 12 12 11 11 10 9 10 10 10 11 11 11 11 10 9 7 7 6 7 8 9 8 8 13 14 12 15 13 11 10 10 11 11
22 22 19 19 18 17 15 14 13 12 11 10 10 9 9 8 8 9 10 10 10 10 10 9 9 8 7 7 7 9 9 6 12 14 13 13 14 13 12 12 10 11 11
23 24 20 18 17 15 14 13 12 11 10 9 8 7 7 8 8 9 10 10 9 9 9 9 8 7 5 5 8 9 11 8 9 13 12 16 15 13 12 11 10 11 11
26 24 22 20 17 15 13 12 11 10 9 9 8 7 6 4 9 9 10 9 9 9 8 7 6 5 5 5 7 13 12 7 13 19 17 15 13 12 12 11 11 10 10
28 26 23 21 19 17 14 12 11 10 9 8 6 4 4 5 6 7 8 7 7 5 6 5 2 3 1 4 7 9 11 10 12 15 10 13 13 12 10 9 10 10 10
22 28 26 24 21 17 14 13 10 8 8 4 4 7 9 9 7 6 4 7 5 3 1 5 3 1 5 4 7 7 10 12 15 6 10 11 13 11 10 9 9 9 9
24 29 28 27 22 18 19 14 12 12 14 11 9 14 1 4 11 9 4 11 8 5 8 1 9 1 3 9 13 5 3 17 17 16 14 13 12 11 10 9 8 8 8
29 30 31 30 23 19 19 14 17 17 15 19 14 5 2 4 4 11 8 11 5 10 6 1 1 6 4 10 9 4 6 15 19 13 14 11 12 11 10 9 8 8 8
26 28 30 31 25 19 15 14 17 14 10 12 10 7 7 3 7 10 11 12 7 6 6 6 4 5 3 8 5 5 8 14 15 11 10 9 10 12 10 9 8 8 7
29 27 28 29 27 15 13 10 9 12 11 5 8 11 8 2 5 5 5 6 7 6 10 4 4 2 3 3 3 3 5 5 11 9 10 10 9 11 11 10 9 8 7
28 26 29 28 26 19 18 10 8 7 9 8 3 7 5 4 2 4 6 1 4 3 6 5 4 2 6 6 2 2 6 7 6 8 10 11 11 9 8 10 10 8 7
28 29 28 26 26 27 18 15 11 11 10 9 10 8 7 6 0 4 4 4 3 4 6 5 1 4 7 7 4 3 3 7 4 8 12 14 9 8 9 8 8 9 8
30 30 27 26 30 28 22 18 18 15 13 13 10 11 10 10 6 5 3 3 7 5 7 6 3 4 9 13 5 9 8 9 4 5 11 8 17 8 8 9 8 7 6
28 30 28 24 24 29 25 22 19 17 15 14 11 11 16 12 9 7 8 4 6 3 3 4 6 4 7 3 8 12 8 10 4 6 6 13 15 12 9 9 10 7 6
29 30 31 28 26 30 27 24 20 20 17 16 14 12 12 9 10 11 8 12 6 8 6 5 5 4 0 1 3 12 8 9 4 4 7 14 15 5 8 10 5 8 6
34 32 32 31 30 29 27 25 22 19 19 19 18 15 14 12 13 11 9 6 7 8 8 5 4 1 8 3 2 7 1 7 4 9 7 11 8 12 10 10 9 6 11
33 35 34 34 29 29 26 24 22 20 19 20 21 19 19 16 14 13 11 8 6 5 7 7 5 2 6 4 0 3 1 1 4 7 7 10 8 10 7 9 10 11 10
33 36 35 35 34 30 30 26 24 21 19 19 21 20 21 20 19 17 15 11 10 8 10 10 9 3 4 8 3 3 2 3 1 1 8 12 8 8 10 13 14 10 12
35 37 37 36 34 31 35 27 30 24 23 23 20 22 24 26 22 18 18 16 13 13 10 9 12 9 5 4 9 9 6 6 7 2 2 7 8 10 10 7 15 12 14
33 35 36 36 36 34 33 38 26 29 24 23 24 21 21 20 24 21 19 19 17 15 10 14 10 8 11 6 6 9 11 6 8 7 3 10 15 17 16 12 12 10 15

GFSSE_925_spd_045.txt.gz
Wind_Speed
17 16 17 18 20 21 19 20 19 19 19 18 20 19 19 19 19 18 17 16 15 15 14 14 14 13 13 13 14 13 13 12 13 13 14 16 16 16 12 13 13 15 16
22 18 20 21 20 21 21 19 19 18 18 19 17 18 18 17 18 17 16 15 14 14 13 13 13 12 12 12 12 13 12 12 12 13 14 15 16 15 11 11 15 16 15
23 22 22 22 20 19 20 19 18 18 17 18 17 14 16 16 16 15 14 14 13 13 12 12 11 11 10 11 13 12 12 13 12 12 12 12 16 15 16 17 16 16 16
25 21 24 22 21 20 21 18 18 17 17 16 15 15 16 16 15 14 12 13 13 12 11 10 10 9 9 10 12 12 12 15 14 8 13 12 13 14 15 16 16 16 16
25 23 23 23 22 21 19 19 16 17 15 16 12 15 14 14 15 13 12 12 12 11 10 9 9 8 7 7 9 11 9 12 10 8 14 16 15 15 16 15 16 15 14
28 24 22 22 22 21 19 17 17 15 15 14 13 13 14 13 13 12 12 12 12 11 11 10 9 8 8 7 9 13 10 10 13 20 21 15 18 16 16 15 15 14 14
27 26 23 23 22 20 18 17 16 14 13 12 13 12 12 12 11 11 12 11 12 12 11 11 9 8 8 8 10 11 11 12 15 15 14 16 17 16 14 13 13 13 13
28 27 23 22 22 19 17 16 15 13 12 12 11 10 11 11 10 10 11 11 11 11 10 10 9 8 8 8 9 10 9 8 13 14 17 17 16 15 15 14 14 13 13
26 27 24 22 20 17 17 16 14 12 12 11 10 9 8 9 10 9 9 10 10 10 9 8 8 7 8 8 9 9 11 10 14 13 17 17 16 15 15 14 14 13 13
30 25 24 22 20 18 17 14 13 12 12 11 10 9 8 6 6 8 8 8 8 8 8 7 6 6 7 8 11 12 12 9 16 13 15 16 15 16 15 14 14 13 12
30 26 24 22 19 16 15 14 13 12 11 11 10 8 5 4 4 4 6 5 7 6 6 5 5 5 3 5 9 10 10 13 15 12 15 15 15 15 14 14 13 13 12
30 30 26 23 21 17 14 14 13 12 11 11 6 5 3 5 3 3 4 4 6 4 2 2 3 1 3 3 6 9 9 12 14 9 15 15 14 14 13 13 13 13 12
31 31 29 26 22 20 17 14 13 12 11 11 8 4 7 4 5 6 7 6 3 4 5 3 7 2 1 6 6 8 9 10 8 10 14 14 13 14 13 12 11 12 11
29 32 33 29 23 25 20 15 15 15 13 14 13 6 10 7 7 6 8 7 6 5 4 2 3 4 4 8 3 7 15 15 12 9 13 12 12 13 12 11 10 10 10
29 35 39 34 28 25 24 16 16 16 18 15 14 9 10 2 5 11 12 9 6 5 4 5 4 4 3 7 10 15 20 19 12 13 12 11 12 11 12 11 10 9 9
29 34 40 37 32 26 23 17 16 14 17 15 19 15 12 4 8 7 7 5 5 5 2 5 3 2 3 5 7 8 22 15 14 12 12 10 11 10 9 10 10 10 8
32 37 43 38 33 28 21 12 14 6 9 17 13 17 13 9 8 6 7 8 2 5 8 4 2 2 6 3 3 8 14 11 13 14 13 11 10 9 10 10 9 9 10
26 40 42 37 35 29 26 15 15 10 8 8 13 14 14 12 7 8 10 7 8 6 5 8 3 4 5 5 4 7 10 13 10 14 9 12 12 9 8 9 10 8 9
30 43 41 36 37 31 29 23 18 14 10 7 16 15 10 14 12 8 6 7 7 6 10 9 5 6 7 7 4 9 10 9 14 16 11 14 11 9 10 9 7 8 8
42 44 41 38 36 33 29 25 20 18 13 10 7 18 15 14 12 8 4 5 8 4 7 6 6 9 8 5 11 11 13 9 8 15 16 16 12 11 9 9 8 6 6
43 42 43 35 37 34 31 27 22 23 20 15 14 9 19 16 14 11 6 7 5 8 9 7 7 6 7 11 9 9 9 5 8 8 20 16 13 13 9 8 6 5 7
38 42 42 35 38 37 35 32 29 24 23 18 17 12 18 17 14 12 10 8 9 9 11 9 7 4 6 7 6 6 2 1 4 9 13 18 15 16 10 9 10 10 7
36 41 43 41 36 39 35 31 28 23 22 23 23 20 21 19 15 14 12 11 13 12 11 11 9 6 9 9 7 5 2 2 3 7 13 18 18 17 15 13 11 10 8
35 40 43 43 40 36 36 33 31 27 23 26 29 25 23 21 19 17 17 14 12 12 11 12 12 10 8 11 7 5 5 5 3 1 9 17 21 17 17 13 11 13 9
36 38 42 45 41 38 37 36 34 30 27 22 19 27 25 24 23 22 20 17 15 12 10 13 13 11 10 11 11 10 8 6 4 3 2 8 14 14 15 17 15 15 13
35 37 38 41 40 41 41 37 37 31 31 23 25 22 26 26 27 23 21 20 18 17 15 13 15 14 11 10 8 12 12 7 7 5 2 7 12 16 17 18 20 19 17

GFSSE_925_spd_048.txt.gz
Wind_Speed
17 18 20 22 20 20 19 20 21 21 21 21 21 21 21 20 19 18 17 17 16 15 14 15 14 13 13 13 14 14 14 14 15 15 15 15 15 16 16 14 16 17 16
24 21 22 24 22 21 20 19 21 20 19 20 19 19 18 18 18 18 17 17 15 15 13 14 12 12 12 13 15 15 15 16 16 15 15 14 14 15 15 14 16 16 15
26 24 24 25 23 22 20 19 19 20 19 17 17 18 17 16 16 17 16 15 14 14 13 12 10 10 11 12 14 16 16 18 16 15 16 17 16 16 17 16 16 16 16
28 28 26 24 23 23 20 19 19 17 17 16 18 17 16 16 15 15 15 14 13 12 12 10 9 10 11 12 14 16 15 13 15 16 15 16 14 15 16 16 16 16 15
29 29 25 24 23 22 20 18 18 17 16 15 16 16 15 15 15 15 14 13 12 11 10 9 8 9 10 11 13 14 12 12 15 13 13 15 17 16 16 16 16 15 15
30 28 25 24 24 21 18 17 16 17 15 15 15 15 14 14 14 14 13 12 12 11 10 9 8 8 9 10 11 13 11 10 13 17 14 16 17 16 15 16 14 14 14
30 27 26 24 24 21 18 17 16 15 14 14 14 13 14 14 14 13 13 12 12 11 10 9 9 9 9 10 11 15 12 15 19 17 19 19 18 17 16 15 14 14 13
30 28 26 24 23 19 18 16 15 14 14 13 12 12 13 14 13 12 12 11 10 10 10 10 10 9 9 11 12 12 11 15 15 17 18 18 17 16 15 14 15 13 13
29 29 27 25 21 18 18 16 14 14 13 12 12 12 12 12 12 11 10 10 9 8 8 9 11 10 10 11 10 14 11 16 15 18 18 17 18 16 15 15 14 14 14
30 29 28 25 22 20 18 15 14 14 12 12 12 12 12 11 10 10 9 8 7 7 6 8 9 10 10 11 9 10 9 11 15 17 18 17 17 16 15 14 15 14 14
29 29 27 25 22 21 19 16 14 14 13 12 11 11 11 10 10 9 7 6 6 5 5 4 7 7 8 9 7 8 10 13 15 15 16 16 17 16 14 14 14 13 13
28 30 28 25 23 21 19 17 15 15 13 13 10 8 9 8 8 7 6 5 4 2 2 2 2 4 6 7 7 7 9 10 11 13 14 15 15 15 14 13 15 13 12
32 31 28 26 23 22 20 18 16 16 15 14 11 7 10 10 9 8 7 5 2 3 5 5 3 3 2 2 6 8 8 10 6 12 14 15 14 14 14 13 13 12 11
31 32 29 26 25 21 20 19 18 18 16 12 11 11 9 10 11 9 8 4 3 6 4 5 5 3 5 6 5 11 9 9 9 11 14 13 13 13 13 12 12 12 12
30 33 31 28 27 24 21 19 20 19 16 12 13 11 9 10 10 6 8 6 5 4 3 3 5 5 7 9 6 5 16 12 10 12 14 13 11 13 12 11 11 11 10
32 35 34 32 29 27 24 20 18 16 15 15 12 14 10 8 9 7 6 7 6 6 3 3 3 4 5 11 12 11 16 15 11 11 13 12 11 11 11 11 10 10 9
33 37 38 35 32 29 25 21 18 12 20 21 18 16 12 9 9 7 7 7 4 4 7 4 2 2 1 5 11 15 16 14 12 12 12 10 12 11 10 9 10 10 8
31 36 41 38 36 32 26 20 16 11 16 19 20 17 13 11 9 8 10 8 7 6 7 5 3 1 4 6 8 18 15 15 12 13 11 8 9 11 10 10 9 7 8
34 41 40 37 39 36 30 25 19 15 12 15 20 20 15 13 10 9 10 9 8 7 8 7 4 4 4 5 3 17 13 16 14 12 11 8 8 8 8 8 8 9 8
33 43 45 43 42 38 34 28 23 18 15 10 15 22 16 16 15 11 8 8 11 7 8 7 5 7 4 7 6 10 12 14 13 12 10 10 8 8 7 8 7 6 5
32 40 42 41 43 40 35 31 28 25 21 16 11 15 20 18 14 12 10 9 10 6 8 8 9 8 6 8 13 11 8 10 9 14 12 12 11 10 9 6 7 4 4
35 41 41 44 46 44 39 36 33 31 26 22 15 14 21 21 17 14 12 11 10 8 9 9 9 7 9 11 8 6 2 2 6 12 18 15 13 12 9 7 7 6 4
34 41 43 45 49 47 41 35 31 28 27 24 22 18 17 24 20 16 13 11 10 7 12 9 7 8 11 8 12 6 2 3 2 4 17 18 16 13 10 10 9 7 6
39 43 43 47 47 46 42 38 35 28 23 31 28 23 19 24 23 20 15 13 12 13 12 12 11 9 12 12 9 5 5 5 3 1 6 18 17 15 14 13 9 8 8
41 41 42 46 46 46 44 41 38 30 32 27 28 26 23 25 26 23 17 16 15 14 15 14 14 13 11 14 12 11 7 4 4 3 2 5 17 18 17 15 11 10 10
41 41 40 41 44 46 46 43 40 36 34 33 25 25 30 26 29 26 20 19 18 18 18 16 16 15 13 12 11 12 12 7 6 4 2 7 16 17 20 19 16 15 13